Stations météo

réclame
Mon MeteoGroup
Kinloss, Grande-Bretagne (3066): Température de l'air & dewpoint: 20.01.2020 06:00:00 - 26.01.2020 06:00:00 (GMT)Kinloss, Grande-Bretagne (3066): Température de l'air -20cm & Température de l'air -100cm: 20.01.2020 06:00:00 - 26.01.2020 06:00:00 (GMT)Kinloss, Grande-Bretagne (3066): Vitesse du vent & gusts: 20.01.2020 06:00:00 - 26.01.2020 06:00:00 (GMT)Kinloss, Grande-Bretagne (3066): Direction du vent: 20.01.2020 06:00:00 - 26.01.2020 06:00:00 (GMT)Kinloss, Grande-Bretagne (3066): reduced air pressure: 20.01.2020 06:00:00 - 26.01.2020 06:00:00 (GMT)Kinloss, Grande-Bretagne (3066): visibility: 20.01.2020 06:00:00 - 26.01.2020 06:00:00 (GMT)Kinloss, Grande-Bretagne (3066): Ensoleillement: 20.01.2020 06:00:00 - 26.01.2020 06:00:00 (GMT)Kinloss, Grande-Bretagne (3066): Quantités de précipitations: 20.01.2020 06:00:00 - 26.01.2020 06:00:00 (GMT)
Date & Time tt [°C] td [°C] tt -20cm [°C] tt -100cm [°C] ff [km/h] ff [knt] fx [km/h] fx [knt] dd ppp [hPa] vv [km] sd [min] rr [mm]
26.01.2020 06:00:00 8,3 3,5 - - 18 10 - - SSW 994,7 45 0 0,0
26.01.2020 05:00:00 8,6 3,4 - - 24 13 52 28 S 995,5 50 0 0,0
26.01.2020 04:00:00 8,3 3,5 - - 16 9 46 25 SSW 996,2 50 0 0,0
26.01.2020 03:00:00 8,3 3,2 - - 31 17 54 29 S 997,1 50 0 0,0
26.01.2020 02:00:00 8,3 3,3 - - 24 13 46 25 SSW 997,8 45 0 0,0
26.01.2020 01:00:00 8,2 3,3 - - 18 10 - - SSW 999,1 50 0 0,0
26.01.2020 00:00:00 8,2 3,1 - - 24 13 - - SSW 999,8 45 - 0,0
25.01.2020 23:00:00 8,2 2,9 - - 18 10 - - S 1000,3 45 0 0,0
25.01.2020 22:00:00 7,9 3,1 - - 28 15 - - SW 1001,2 40 0 0,0
25.01.2020 21:00:00 7,5 2,9 - - 21 11 46 25 SSW 1002,1 45 0 0,0
25.01.2020 20:00:00 8,0 3,0 - - 28 15 48 26 SSW 1002,4 50 0 0,0
25.01.2020 19:00:00 7,9 3,0 - - 28 15 - - SSW 1002,6 55 0 0,0
25.01.2020 18:00:00 8,0 2,9 - - 11 6 - - SSW 1003,3 50 0 0,0
25.01.2020 17:00:00 8,4 2,9 - - 18 10 - - SSW 1003,3 50 0 0,0
25.01.2020 16:00:00 9,0 2,8 - - 21 11 - - SSW 1003,4 55 6 0,0
25.01.2020 15:00:00 8,9 3,0 - - 5 3 48 26 S 1003,1 50 0 0,0
25.01.2020 14:00:00 9,1 3,0 - - 35 19 50 27 WSW 1003,4 55 0 0,0
25.01.2020 13:00:00 9,4 2,6 - - 26 14 52 28 SW 1005,0 55 0 0,0
25.01.2020 12:00:00 9,5 3,1 - - 29 16 52 28 SW 1005,3 45 12 0,0
25.01.2020 11:00:00 8,7 3,7 - - 24 13 - - SW 1005,7 55 0 0,0
25.01.2020 10:00:00 8,6 3,6 - - 24 13 - - SW 1005,8 50 0 0,0
25.01.2020 09:00:00 8,9 3,7 6,5 6,2 21 11 - - SSW 1005,7 55 0 0,0
25.01.2020 08:00:00 8,8 4,0 - - 21 11 - - SW 1006,1 55 0 0,0
25.01.2020 07:00:00 8,3 3,6 - - 16 9 52 28 SW 1006,4 55 0 0,0
25.01.2020 06:00:00 8,2 3,4 - - 31 17 57 31 SW 1006,8 60 0 0,0
25.01.2020 05:00:00 8,2 3,4 - - 29 16 52 28 WSW 1006,9 55 0 0,0
25.01.2020 04:00:00 8,3 4,0 - - 22 12 - - SW 1007,6 55 0 0,0
25.01.2020 03:00:00 8,6 4,6 - - 15 8 - - SW 1008,4 55 0 0,0
25.01.2020 02:00:00 8,7 5,6 - - 13 7 - - WSW 1009,4 55 0 0,0
25.01.2020 01:00:00 8,6 5,7 - - 9 5 - - SSW 1010,4 55 0 0,0
25.01.2020 00:00:00 9,0 5,4 - - 18 10 - - S 1011,2 55 - 0,0
24.01.2020 23:00:00 8,1 5,1 - - 18 10 - - SSW 1012,0 50 0 0,0
24.01.2020 22:00:00 5,2 3,7 - - 2 1 - - NE 1012,5 45 0 0,0
24.01.2020 21:00:00 5,2 2,9 - - 8 4 - - ENE 1013,3 35 0 0,0
24.01.2020 20:00:00 7,1 3,9 - - 13 7 - - SW 1013,8 35 0 0,0
24.01.2020 19:00:00 7,3 3,8 - - 13 7 - - SW 1014,6 30 0 0,0
24.01.2020 18:00:00 7,2 4,2 - - 16 9 - - SW 1015,0 27 0 0,0
24.01.2020 17:00:00 7,5 4,3 - - 18 10 - - SW 1015,1 29 0 0,0
24.01.2020 16:00:00 7,5 4,0 - - 11 6 - - SSW 1015,5 29 0 0,0
24.01.2020 15:00:00 7,7 3,9 - - 21 11 - - WSW 1015,7 29 0 0,0
24.01.2020 14:00:00 7,7 3,9 - - 16 9 - - SW 1016,2 30 18 0,0
24.01.2020 13:00:00 7,9 4,3 - - 18 10 - - WSW 1016,6 30 6 0,0
24.01.2020 12:00:00 7,3 3,9 - - 21 11 - - WSW 1017,2 30 6 0,0
24.01.2020 11:00:00 7,3 4,2 - - 18 10 - - SW 1017,2 30 0 0,0
24.01.2020 10:00:00 6,4 3,9 - - 11 6 - - S 1017,2 29 0 0,0
24.01.2020 09:00:00 5,5 3,1 6,7 6,2 15 8 - - SW 1017,0 30 0 0,0
24.01.2020 08:00:00 6,7 3,0 - - 18 10 - - WSW 1017,2 30 0 0,0
24.01.2020 07:00:00 6,4 3,4 - - 22 12 - - W 1017,0 30 0 0,0
24.01.2020 06:00:00 6,7 4,1 - - 21 11 - - WSW 1016,8 30 0 0,0
24.01.2020 05:00:00 6,8 4,6 - - 26 14 - - WSW 1016,4 30 0 0,0
24.01.2020 04:00:00 6,8 5,0 - - 13 7 - - SW 1016,7 30 0 0,0
24.01.2020 03:00:00 7,6 6,5 - - 15 8 - - WSW 1017,2 28 0 0,0
24.01.2020 02:00:00 8,0 7,1 - - 4 2 - - WSW 1017,6 30 0 0,0
24.01.2020 01:00:00 8,3 6,9 - - 13 7 - - WSW 1017,9 45 0 0,0
24.01.2020 00:00:00 8,1 7,2 - - 16 9 - - WSW 1018,1 50 - 0,0
23.01.2020 23:00:00 8,2 6,8 - - 22 12 - - SW 1018,3 45 0 0,0
23.01.2020 22:00:00 8,2 7,1 - - 29 16 - - W 1019,0 18 0 0,0
23.01.2020 21:00:00 9,7 6,2 - - 28 15 - - SW 1018,4 60 0 0,0
23.01.2020 20:00:00 9,7 6,2 - - 29 16 - - SW 1019,1 55 0 0,0
23.01.2020 19:00:00 9,6 6,1 - - 28 15 - - WSW 1019,6 55 0 0,0
23.01.2020 18:00:00 9,4 6,0 - - 26 14 - - WSW 1020,0 60 0 0,0
23.01.2020 17:00:00 9,5 5,9 - - 31 17 46 25 WSW 1020,0 55 0 0,0
23.01.2020 16:00:00 9,6 5,9 - - 35 19 52 28 SW 1020,2 60 24 0,0
23.01.2020 15:00:00 10,4 6,2 - - 26 14 - - SW 1021,1 55 18 0,0
23.01.2020 14:00:00 10,4 6,0 - - 26 14 55 30 SW 1022,2 60 24 0,0
23.01.2020 13:00:00 10,5 5,9 - - 29 16 46 25 SW 1022,8 55 30 0,0
23.01.2020 12:00:00 10,2 5,6 - - 29 16 - - SW 1023,7 - 42 0,0
23.01.2020 11:00:00 9,4 5,2 - - 22 12 54 29 SW 1024,5 55 0 0,0
23.01.2020 10:00:00 8,6 4,9 - - 29 16 50 27 SW 1025,2 60 0 0,0
23.01.2020 09:00:00 8,2 4,8 6,4 6,0 39 21 52 28 SW 1025,2 55 0 0,0
23.01.2020 08:00:00 8,2 4,8 - - 24 13 - - SW 1025,6 55 0 0,0
23.01.2020 07:00:00 8,2 4,9 - - 35 19 46 25 WSW 1025,9 60 0 0,0
23.01.2020 06:00:00 8,6 4,7 - - 26 14 52 28 WSW 1026,2 60 0 0,0
23.01.2020 05:00:00 8,8 4,9 - - 31 17 46 25 SW 1026,2 55 0 0,0
23.01.2020 04:00:00 9,5 5,2 - - 31 17 50 27 SW 1027,3 45 0 0,0
23.01.2020 03:00:00 9,7 6,2 - - 24 13 - - SW 1028,5 50 0 0,0
23.01.2020 02:00:00 9,5 5,7 - - 28 15 - - SW 1029,4 40 0 0,0
23.01.2020 01:00:00 9,7 6,2 - - 22 12 - - WSW 1030,4 40 0 0,0
23.01.2020 00:00:00 9,9 6,3 - - 24 13 - - SW 1030,0 45 - 0,0
22.01.2020 23:00:00 9,8 6,5 - - 24 13 - - SW 1031,0 50 0 0,0
22.01.2020 22:00:00 10,4 7,0 - - 15 8 - - SW 1031,2 50 0 0,0
22.01.2020 21:00:00 10,2 7,3 - - 16 9 - - SW 1032,0 55 0 0,0
22.01.2020 20:00:00 9,9 7,7 - - 13 7 - - SW 1032,8 50 0 0,0
22.01.2020 19:00:00 10,9 8,2 - - 18 10 - - WSW 1033,3 50 0 0,0
22.01.2020 18:00:00 10,6 8,4 - - 15 8 - - WSW 1033,5 50 0 0,0
22.01.2020 17:00:00 11,1 9,1 - - 9 5 - - SW 1034,1 45 0 0,0
22.01.2020 16:00:00 11,2 9,3 - - 13 7 - - WSW 1034,1 55 0 0,0
22.01.2020 15:00:00 11,9 9,0 - - 15 8 - - WSW 1034,0 55 0 0,0
22.01.2020 14:00:00 12,1 9,0 - - 22 12 - - WSW 1033,9 50 0 0,0
22.01.2020 13:00:00 11,8 8,8 - - 22 12 - - WSW 1034,3 50 6 0,0
22.01.2020 12:00:00 11,8 9,1 - - 21 11 - - SW 1034,9 45 6 0,0
22.01.2020 11:00:00 11,0 8,4 - - 16 9 - - WSW 1035,0 45 30 0,0
22.01.2020 10:00:00 10,8 8,1 - - 22 12 - - WSW 1034,7 45 6 0,0
22.01.2020 09:00:00 10,6 8,1 6,0 6,0 21 11 - - WSW 1034,5 40 0 0,0
22.01.2020 08:00:00 10,5 8,0 - - 18 10 - - WSW 1034,4 40 0 0,0
22.01.2020 07:00:00 10,5 8,4 - - 18 10 - - WSW 1034,3 40 0 0,0
22.01.2020 06:00:00 10,5 8,4 - - 15 8 - - WSW 1034,2 40 0 0,0
22.01.2020 05:00:00 11,1 8,6 - - 22 12 - - WSW 1033,9 45 0 0,0
22.01.2020 04:00:00 11,5 8,9 - - 24 13 - - WSW 1034,0 50 0 0,0
22.01.2020 03:00:00 11,1 8,9 - - 21 11 - - WSW 1034,0 55 0 0,0
22.01.2020 02:00:00 10,4 8,7 - - 24 13 - - SW 1033,8 55 0 0,0
22.01.2020 01:00:00 10,3 8,9 - - 18 10 - - SW 1034,3 60 0 0,0
22.01.2020 00:00:00 9,5 8,7 - - 13 7 - - SW 1034,5 55 - 0,2
21.01.2020 23:00:00 9,1 8,9 - - 11 6 - - WSW 1034,4 40 0 0,0
21.01.2020 22:00:00 7,3 7,3 - - 4 2 - - WSW 1034,4 10 0 0,0
21.01.2020 21:00:00 7,6 7,5 - - 4 2 - - E 1034,6 11 0 0,0
21.01.2020 20:00:00 7,5 7,4 - - 4 2 - - E 1034,8 7 0 0,0
21.01.2020 19:00:00 7,7 7,6 - - 5 3 - - SE 1034,8 15 0 0,0
21.01.2020 18:00:00 7,5 7,4 - - 5 3 - - E 1034,7 10 0 0,0
21.01.2020 17:00:00 5,8 5,6 - - 0 0 - - N 1034,4 1,1 0 0,0
21.01.2020 16:00:00 7,4 7,3 - - 8 4 - - S 1034,5 6 0 0,2
21.01.2020 15:00:00 7,4 7,3 - - 4 2 - - NNE 1035,1 5 0 0,4
21.01.2020 14:00:00 7,8 7,7 - - 9 5 - - N 1035,2 5 0 0,0
21.01.2020 13:00:00 8,0 7,9 - - 8 4 - - NNW 1035,8 1,4 0 0,0
21.01.2020 12:00:00 9,1 9,0 - - 4 2 - - W 1035,4 27 0 0,0
21.01.2020 11:00:00 8,6 8,6 - - 2 1 - - W 1035,4 24 0 0,0
21.01.2020 10:00:00 8,1 8,0 - - 5 3 - - S 1035,7 4,9 0 0,4
21.01.2020 09:00:00 7,9 7,7 5,7 5,9 4 2 - - NE 1036,0 2,5 0 0,2
21.01.2020 08:00:00 7,9 7,7 - - 4 2 - - NNW 1035,2 3,9 0 0,4
21.01.2020 07:00:00 8,7 8,4 - - 13 7 - - WNW 1035,2 2,8 0 0,8
21.01.2020 06:00:00 9,3 8,6 - - 11 6 - - WSW 1034,9 6 0 0,0
21.01.2020 05:00:00 10,0 8,2 - - 15 8 - - WSW 1034,8 11 0 0,0
21.01.2020 04:00:00 10,2 7,8 - - 22 12 - - WSW 1034,8 35 0 0,0
21.01.2020 03:00:00 10,4 7,3 - - 21 11 - - WSW 1034,4 60 0 0,0
21.01.2020 02:00:00 10,5 7,0 - - 28 15 48 26 WSW 1033,7 60 0 0,0
21.01.2020 01:00:00 10,3 6,8 - - 29 16 - - WSW 1033,6 60 0 0,0
21.01.2020 00:00:00 9,8 6,6 - - 31 17 46 25 WSW 1033,6 60 - 0,0
20.01.2020 23:00:00 9,9 6,4 - - 29 16 50 27 SW 1033,7 60 0 0,0
20.01.2020 22:00:00 10,0 6,1 - - 41 22 61 33 WSW 1033,8 60 0 0,0
20.01.2020 21:00:00 9,9 5,8 - - 39 21 63 34 WSW 1033,8 55 0 0,0
20.01.2020 20:00:00 10,0 5,6 - - 34 18 55 30 SW 1034,2 60 0 0,0
20.01.2020 19:00:00 9,5 5,4 - - 35 19 50 27 SW 1034,5 55 0 0,0
20.01.2020 18:00:00 9,1 5,1 - - 35 19 59 32 SW 1034,8 55 0 0,0
20.01.2020 17:00:00 9,4 5,2 - - 37 20 59 32 SW 1034,7 50 0 0,0
20.01.2020 16:00:00 10,0 5,5 - - 37 20 54 29 SW 1035,1 50 12 0,0
20.01.2020 15:00:00 10,5 5,4 - - 34 18 48 26 SW 1034,9 45 60 0,0
20.01.2020 14:00:00 10,5 5,2 - - 41 22 59 32 SW 1035,2 40 60 0,0
20.01.2020 13:00:00 10,2 5,0 - - 42 23 70 38 SW 1035,0 45 42 0,0
20.01.2020 12:00:00 10,0 4,7 - - 31 17 63 34 SW 1035,6 45 54 0,0
20.01.2020 11:00:00 9,9 4,8 - - 46 25 65 35 SW 1035,5 45 60 0,0
20.01.2020 10:00:00 9,3 4,8 - - 37 20 78 42 SW 1036,2 40 24 0,0
20.01.2020 09:00:00 9,2 5,0 5,2 6,0 42 23 61 33 SW 1035,9 45 0 0,0
20.01.2020 08:00:00 9,0 5,0 - - 34 18 57 31 SW 1036,2 45 0 0,0
20.01.2020 07:00:00 9,1 4,7 - - 34 18 67 36 SW 1036,0 55 0 0,0
20.01.2020 06:00:00 9,4 4,6 - - 37 20 78 42 SSW 1036,0 55 0 0,0

tt = Température de l'air
td = dewpoint
tt -20cm = Température de l'air -20cm
tt -100cm = Température de l'air -100cm
ff = Vitesse du vent
fx = gusts
dd = Direction du vent
ppp = reduced air pressure
vv = visibility
sd = Ensoleillement
rr = Quantités de précipitations

stations d'obs. à proximité